SHT1369 EGCC-EGLL

Flight info

Callsign SHT1369
Flight time 0h 28m
Altitude 19000
Route LISTO L612 HON
Aircraft A320/M-SDE3FGHIRWY/LB1

Departure

Time 2026-05-05 21:51
Airport Manchester Airport (EGCC)

Arrival

Time 2026-05-05 22:19
Airport London Heathrow Airport (EGLL)
Time Latitude Longitude Altitude Speed Heading
2026-05-05 21:32 53.35796 -2.27496 233 ft 0 kts 50°
2026-05-05 21:42 53.35786 -2.27516 233 ft 4 kts 55°
2026-05-05 21:42 53.35773 -2.27555 234 ft 4 kts 68°
2026-05-05 21:43 53.35765 -2.27598 233 ft 4 kts 85°
2026-05-05 21:43 53.35767 -2.27642 233 ft 4 kts 112°
2026-05-05 21:43 53.35781 -2.27674 234 ft 2 kts 149°
2026-05-05 21:43 53.35782 -2.27675 234 ft 0 kts 149°
2026-05-05 21:45 53.35781 -2.27675 234 ft 0 kts 149°
2026-05-05 21:46 53.35775 -2.27670 235 ft 3 kts 151°
2026-05-05 21:47 53.35729 -2.27638 233 ft 11 kts 159°
2026-05-05 21:47 53.35636 -2.27636 233 ft 16 kts 214°
2026-05-05 21:47 53.35542 -2.27785 233 ft 21 kts 224°
2026-05-05 21:47 53.35426 -2.27971 233 ft 25 kts 224°
2026-05-05 21:48 53.35292 -2.28185 233 ft 28 kts 224°
2026-05-05 21:48 53.35162 -2.28443 233 ft 30 kts 231°
2026-05-05 21:48 53.35024 -2.28727 233 ft 33 kts 227°
2026-05-05 21:48 53.34861 -2.29008 233 ft 33 kts 224°
2026-05-05 21:49 53.34795 -2.29063 234 ft 3 kts 184°
2026-05-05 21:49 53.34744 -2.29070 233 ft 11 kts 184°
2026-05-05 21:49 53.34662 -2.29002 233 ft 14 kts 116°
2026-05-05 21:49 53.34670 -2.28961 233 ft 0 kts 58°
2026-05-05 21:50 53.34694 -2.28904 233 ft 31 kts 52°
2026-05-05 21:50 53.34980 -2.28311 238 ft 96 kts 51°
2026-05-05 21:50 53.35694 -2.26824 478 ft 127 kts 50°
2026-05-05 21:51 53.36081 -2.26099 812 ft 128 kts 47°
2026-05-05 21:51 53.36664 -2.24934 1178 ft 138 kts 52°
2026-05-05 21:51 53.37326 -2.23497 1393 ft 171 kts 60°
2026-05-05 21:51 53.37637 -2.21483 1916 ft 194 kts 92°
2026-05-05 21:52 53.35741 -2.17668 2841 ft 250 kts 145°
2026-05-05 21:52 53.34034 -2.16699 3602 ft 269 kts 175°
2026-05-05 21:52 53.32074 -2.16856 4042 ft 295 kts 184°
2026-05-05 21:53 53.29942 -2.17224 4409 ft 319 kts 186°
2026-05-05 21:53 53.27688 -2.17658 4765 ft 339 kts 187°
2026-05-05 21:53 53.25313 -2.18030 5460 ft 346 kts 180°
2026-05-05 21:53 53.22925 -2.17377 6231 ft 351 kts 160°
2026-05-05 21:54 53.20712 -2.15462 6532 ft 371 kts 147°
2026-05-05 21:54 53.18514 -2.13036 6921 ft 383 kts 146°
2026-05-05 21:54 53.16289 -2.10498 7491 ft 390 kts 145°
2026-05-05 21:54 53.14039 -2.07904 8089 ft 396 kts 145°
2026-05-05 21:55 53.11756 -2.05283 8721 ft 401 kts 145°
2026-05-05 21:55 53.09445 -2.02657 9355 ft 405 kts 145°
2026-05-05 21:55 53.07124 -2.00046 9973 ft 410 kts 146°
2026-05-05 21:55 53.04751 -1.97391 10566 ft 414 kts 146°
2026-05-05 21:56 53.02315 -1.94677 11188 ft 417 kts 146°
2026-05-05 21:56 52.99921 -1.92015 11835 ft 419 kts 146°
2026-05-05 21:56 52.97508 -1.89335 12641 ft 418 kts 147°
2026-05-05 21:56 52.95082 -1.86647 13326 ft 421 kts 147°
2026-05-05 21:57 52.92647 -1.83943 13970 ft 424 kts 147°
2026-05-05 21:57 52.90180 -1.81199 14526 ft 427 kts 147°
2026-05-05 21:57 52.87705 -1.78448 15079 ft 429 kts 147°
2026-05-05 21:57 52.85206 -1.75680 15626 ft 432 kts 147°
2026-05-05 21:58 52.82729 -1.72942 16147 ft 434 kts 147°
2026-05-05 21:58 52.80179 -1.70129 16672 ft 437 kts 147°
2026-05-05 21:58 52.77681 -1.67375 17177 ft 439 kts 148°
2026-05-05 21:58 52.75098 -1.64532 17653 ft 441 kts 148°
2026-05-05 21:59 52.72531 -1.61714 18134 ft 444 kts 148°
2026-05-05 21:59 52.69951 -1.58882 18442 ft 450 kts 148°
2026-05-05 21:59 52.67329 -1.56007 18795 ft 453 kts 148°
2026-05-05 21:59 52.64689 -1.53116 18986 ft 460 kts 148°
2026-05-05 22:00 52.62034 -1.50219 19042 ft 468 kts 148°
2026-05-05 22:00 52.59313 -1.47252 18440 ft 483 kts 148°
2026-05-05 22:00 52.56472 -1.44159 18802 ft 479 kts 148°
2026-05-05 22:00 52.53711 -1.41163 19158 ft 481 kts 148°
2026-05-05 22:01 52.50912 -1.38141 19521 ft 479 kts 148°
2026-05-05 22:01 52.48142 -1.35161 18756 ft 467 kts 148°
2026-05-05 22:01 52.45433 -1.32243 18434 ft 450 kts 148°
2026-05-05 22:01 52.42940 -1.29544 18976 ft 412 kts 148°
2026-05-05 22:02 52.40618 -1.27010 19033 ft 393 kts 148°
2026-05-05 22:02 52.38390 -1.24584 19028 ft 375 kts 148°
2026-05-05 22:02 52.36262 -1.22277 19026 ft 359 kts 148°
2026-05-05 22:02 52.34218 -1.20073 19031 ft 352 kts 149°
2026-05-05 22:03 52.32095 -1.17799 18845 ft 380 kts 149°
2026-05-05 22:03 52.29794 -1.15349 18610 ft 407 kts 148°
2026-05-05 22:03 52.27353 -1.12755 18323 ft 432 kts 148°
2026-05-05 22:03 52.24732 -1.09965 17405 ft 465 kts 148°
2026-05-05 22:04 52.22015 -1.07111 17227 ft 452 kts 148°
2026-05-05 22:04 52.19318 -1.04260 14785 ft 476 kts 147°
2026-05-05 22:04 52.16705 -1.01397 14642 ft 420 kts 147°
2026-05-05 22:04 52.14459 -0.98928 14596 ft 378 kts 147°
2026-05-05 22:05 52.12283 -0.96578 13278 ft 378 kts 147°
2026-05-05 22:05 52.10028 -0.94196 12236 ft 383 kts 148°
2026-05-05 22:05 52.07860 -0.91927 11779 ft 367 kts 147°
2026-05-05 22:05 52.05781 -0.89746 11479 ft 346 kts 147°
2026-05-05 22:06 52.03773 -0.87636 11228 ft 342 kts 147°
2026-05-05 22:06 52.01776 -0.85539 10976 ft 340 kts 147°
2026-05-05 22:06 51.99796 -0.83455 10731 ft 339 kts 147°
2026-05-05 22:06 51.97820 -0.81369 10483 ft 338 kts 147°
2026-05-05 22:07 51.95858 -0.79300 10240 ft 337 kts 147°
2026-05-05 22:07 51.93889 -0.77225 10004 ft 337 kts 147°
2026-05-05 22:07 51.91955 -0.75189 9843 ft 326 kts 147°
2026-05-05 22:07 51.90082 -0.73223 9704 ft 314 kts 147°
2026-05-05 22:08 51.88276 -0.71333 9567 ft 304 kts 147°
2026-05-05 22:08 51.86513 -0.69493 9433 ft 299 kts 147°
2026-05-05 22:08 51.84794 -0.67695 9296 ft 297 kts 147°
2026-05-05 22:08 51.83059 -0.65880 9015 ft 299 kts 147°
2026-05-05 22:09 51.81311 -0.64050 8659 ft 298 kts 147°
2026-05-05 22:09 51.79581 -0.62242 8323 ft 296 kts 147°
2026-05-05 22:09 51.77860 -0.60448 7971 ft 294 kts 147°
2026-05-05 22:09 51.76159 -0.58675 7794 ft 287 kts 147°
2026-05-05 22:10 51.74488 -0.57012 7660 ft 278 kts 154°
2026-05-05 22:10 51.72659 -0.56211 7570 ft 269 kts 177°
2026-05-05 22:10 51.70847 -0.56536 7379 ft 257 kts 199°
2026-05-05 22:10 51.69209 -0.57697 6716 ft 260 kts 208°
2026-05-05 22:11 51.67581 -0.59022 6107 ft 262 kts 208°
2026-05-05 22:11 51.65982 -0.60330 5726 ft 254 kts 207°
2026-05-05 22:11 51.64433 -0.61591 5412 ft 243 kts 207°
2026-05-05 22:11 51.62976 -0.62772 5125 ft 233 kts 207°
2026-05-05 22:12 51.61538 -0.63936 4842 ft 230 kts 207°
2026-05-05 22:12 51.60264 -0.65411 4562 ft 225 kts 232°
2026-05-05 22:12 51.59385 -0.67473 4281 ft 223 kts 240°
2026-05-05 22:12 51.59115 -0.68197 4183 ft 223 kts 240°
2026-05-05 22:13 51.58615 -0.69570 4232 ft 207 kts 241°
2026-05-05 22:13 51.57876 -0.71617 4086 ft 215 kts 239°
2026-05-05 22:13 51.56950 -0.73416 4004 ft 203 kts 224°
2026-05-05 22:13 51.55946 -0.74874 3986 ft 186 kts 221°
2026-05-05 22:14 51.54988 -0.76130 3968 ft 170 kts 207°
2026-05-05 22:14 51.53907 -0.76612 3987 ft 159 kts 185°
2026-05-05 22:14 51.52787 -0.76771 4017 ft 170 kts 182°
2026-05-05 22:14 51.51594 -0.76830 3861 ft 170 kts 170°
2026-05-05 22:15 51.50587 -0.75992 3494 ft 164 kts 131°
2026-05-05 22:15 51.49870 -0.74572 3124 ft 164 kts 122°
2026-05-05 22:15 51.49226 -0.73087 3010 ft 163 kts 121°
2026-05-05 22:15 51.48589 -0.71575 3005 ft 164 kts 121°
2026-05-05 22:16 51.47958 -0.70048 2992 ft 164 kts 117°
2026-05-05 22:16 51.47649 -0.68312 2668 ft 162 kts 88°
2026-05-05 22:16 51.47661 -0.66551 2398 ft 159 kts 88°
2026-05-05 22:16 51.47670 -0.64781 2163 ft 157 kts 88°
2026-05-05 22:17 51.47680 -0.63032 1943 ft 157 kts 88°
2026-05-05 22:17 51.47689 -0.61288 1725 ft 156 kts 88°
2026-05-05 22:17 51.47698 -0.59541 1504 ft 157 kts 88°
2026-05-05 22:17 51.47706 -0.57807 1285 ft 152 kts 89°
2026-05-05 22:18 51.47714 -0.56192 1092 ft 140 kts 88°
2026-05-05 22:18 51.47721 -0.54649 900 ft 136 kts 88°
2026-05-05 22:18 51.47728 -0.53149 711 ft 135 kts 88°
2026-05-05 22:18 51.47735 -0.51650 522 ft 134 kts 88°
2026-05-05 22:19 51.47741 -0.50158 342 ft 133 kts 88°
2026-05-05 22:19 51.47745 -0.48689 144 ft 130 kts 88°
2026-05-05 22:19 51.47751 -0.47287 85 ft 96 kts 89°
2026-05-05 22:19 51.47754 -0.46750 89 ft 45 kts 90°
2026-05-05 22:20 51.47756 -0.46278 90 ft 26 kts 93°
2026-05-05 22:20 51.47660 -0.46101 90 ft 21 kts 142°
2026-05-05 22:20 51.47635 -0.46073 90 ft 5 kts 147°
2026-05-05 22:20 51.47574 -0.46080 88 ft 14 kts 203°
2026-05-05 22:21 51.47532 -0.46098 90 ft 1 kts 204°
2026-05-05 22:21 51.47522 -0.46148 89 ft 9 kts 258°
2026-05-05 22:21 51.47515 -0.46308 87 ft 19 kts 268°
2026-05-05 22:21 51.47515 -0.46576 87 ft 29 kts 272°
2026-05-05 22:22 51.47495 -0.46842 87 ft 20 kts 269°
2026-05-05 22:22 51.47491 -0.47080 87 ft 22 kts 269°
2026-05-05 22:22 51.47491 -0.47336 87 ft 24 kts 270°
2026-05-05 22:22 51.47491 -0.47614 87 ft 26 kts 270°
2026-05-05 22:23 51.47490 -0.47905 87 ft 27 kts 269°
2026-05-05 22:23 51.47489 -0.48224 87 ft 29 kts 270°
2026-05-05 22:23 51.47488 -0.48555 87 ft 30 kts 270°
2026-05-05 22:23 51.47475 -0.48820 91 ft 10 kts 219°
2026-05-05 22:24 51.47418 -0.48832 87 ft 8 kts 180°
2026-05-05 22:24 51.47408 -0.48832 87 ft 1 kts 180°
2026-05-05 22:24 51.47398 -0.48832 87 ft 0 kts 179°